Regional Weather Roundup
Issued by NWS

Home | Current Version | Previous Version | Text Only | Print | Product List | Glossary On
Versions: 1 2 3 4 5 6 7 8 9 10 11 12 13 14 15 16 17 18 19 20 21 22 23 24 25 26 27 28 29 30 31 32 33 34 35 36 37 38 39 40 41 42 43 44 45 46 47 48 49 50
000
ASUS43 KLSX 300410
RWRMO

WEATHER SUMMARY FOR MISSOURI
NATIONAL WEATHER SERVICE SPRINGFIELD MO
1100 PM CDT FRI JUL 29 2016

NOTE: "FAIR" INDICATES FEW OR NO CLOUDS BELOW 12,000 FEET WITH NO
       SIGNIFICANT WEATHER AND/OR OBSTRUCTIONS TO VISIBILITY.
       CURRENT SKY AND/OR WEATHER CONDITIONS ARE NOT AVAILABLE FOR
       CHILLICOTHE AND FARMINGTON.

MOZ001>031-035>038-043-044-053-054-300500-
...NORTHERN AND WESTERN MISSOURI...

CITY           SKY/WX    TMP DP  RH WIND       PRES   REMARKS
KANSAS CTY INT CLEAR     69  60  73 N6        30.00S
KANSAS C DTWN  CLEAR     75  63  66 N7        29.99R
LEE`S SUMMIT   CLEAR     73  63  70 N6        30.01R
ST JOSEPH      CLEAR     67  63  87 N5        30.01R
CHILLICOTHE      N/A     70  64  81 N3        30.01R
KIRKSVILLE     CLEAR     67  63  87 N5        29.99S

$$
MOZ066>068-077>081-088>096-101>105-300500-
...SOUTHWEST MISSOURI...

CITY           SKY/WX    TMP DP  RH WIND       PRES   REMARKS
SPRINGFIELD    CLEAR     76  69  79 E3        30.00R
JOPLIN         CLEAR     73  70  90 CALM      30.00R
BRANSON        CLOUDY    72  72 100 CALM      30.01S

$$
MOZ032>034-039>042-045>050-055>058-069>072-300500-
...CENTRAL MISSOURI...

CITY           SKY/WX    TMP DP  RH WIND       PRES   REMARKS
COLUMBIA       CLEAR     71  66  84 N3        29.98R
JEFFERSON CITY CLEAR     73  67  81 NW3       29.96R
ROLLA          CLEAR     71  69  93 CALM      29.97R
SEDALIA        CLEAR     73  66  78 CALM      30.00R
WHITEMAN AFB   PTCLDY    72  69  91 SW2       29.98R
OSAGE BEACH    CLEAR     72  71  97 CALM      29.99R

$$
MOZ051-052-059>065-300500-
...EAST CENTRAL MISSOURI...

CITY           SKY/WX    TMP DP  RH WIND       PRES   REMARKS
ST LOUIS INTL  PTCLDY    78  67  68 N5        29.95R
SPIRIT OF STL  CLEAR     72  69  90 CALM      29.94R
ST CHARLES     CLEAR     73  70  90 NE7       29.94R

$$
MOZ072>076-082>087-097>100-106>115-300500-
...SOUTH CENTRAL AND SOUTHEAST MISSOURI...

CITY           SKY/WX    TMP DP  RH WIND       PRES   REMARKS
CAPE GIRARDEAU PTCLDY    71  69  93 S5        29.94S
FARMINGTON     CLEAR     73  71  93 CALM      29.98R
POPLAR BLUFF   CLEAR     71  70  96 SW3       29.97R
WEST PLAINS    PTCLDY    71  68  90 W3        30.02R

$$




USA.gov is the U.S. government's official web portal to all federal, state and local government web resources and services.